Location: Forst
(46.9333°N, 15.4333°E)
Time: 05:41:24
(UTC+00:00)

COSMO-SKYMED 1 - Pass Details

Date: 01 December 2020
Orbit: 621 x 623 km, 97.9° (Epoch: 18 January)

Event Time Altitude Azimuth Distance (km) Brightness Sun altitude
Exits shadow 17:22:55 24° 8° (N) 1,302 4.0 -21.7°
Maximum altitude 17:25:30 76° 286° (WNW) 647 2.6 -22.2°
Drops below altitude 10° 17:29:49 10° 201° (SSW) 1,989 5.5 -22.9°
Sets 17:32:00 0° 199° (SSW) 2,890 6.4 -23.3°
